TimeCDT,TemperatureF,Dew PointF,Humidity,Sea Level PressureIn,VisibilityMPH,Wind Direction,Wind SpeedMPH,Gust SpeedMPH,PrecipitationIn,Events,Conditions,WindDirDegrees,DateUTC
12:53 AM,53.1,48.0,83,29.47,10.0,SE,9.2,-,N/A,,Clear,140,2012-10-17 05:53:00
1:53 AM,51.1,48.0,89,29.46,10.0,ESE,4.6,-,N/A,,Partly Cloudy,120,2012-10-17 06:53:00
2:53 AM,50.0,48.0,93,29.44,8.0,SSE,3.5,-,N/A,,Clear,150,2012-10-17 07:53:00
3:53 AM,48.0,46.9,96,29.43,4.0,Calm,Calm,-,N/A,,Clear,0,2012-10-17 08:53:00
4:41 AM,44.6,44.6,100,29.43,1.8,Calm,Calm,-,N/A,,Clear,0,2012-10-17 09:41:00
4:48 AM,44.6,44.6,100,29.43,0.2,Calm,Calm,-,N/A,Fog,Fog,0,2012-10-17 09:48:00
4:49 AM,45.0,44.1,97,29.44,0.2,Calm,Calm,-,N/A,Fog,Fog,0,2012-10-17 09:49:00
5:03 AM,46.4,44.6,93,29.43,1.0,Calm,Calm,-,N/A,,Clear,0,2012-10-17 10:03:00
5:16 AM,46.4,44.6,93,29.43,0.2,Calm,Calm,-,N/A,Fog,Fog,0,2012-10-17 10:16:00
5:24 AM,46.4,44.6,93,29.43,4.0,South,3.5,-,N/A,,Clear,190,2012-10-17 10:24:00
5:53 AM,46.0,45.0,96,29.44,4.0,Calm,Calm,-,N/A,,Clear,0,2012-10-17 10:53:00
6:53 AM,45.0,43.0,93,29.44,5.0,South,3.5,-,N/A,,Clear,180,2012-10-17 11:53:00
7:14 AM,44.6,44.6,100,29.42,1.8,Calm,Calm,-,N/A,,Clear,0,2012-10-17 12:14:00
7:21 AM,44.6,44.6,100,29.42,5.0,Calm,Calm,-,N/A,,Clear,0,2012-10-17 12:21:00
7:53 AM,46.0,45.0,96,29.43,5.0,South,5.8,-,N/A,,Clear,170,2012-10-17 12:53:00
8:53 AM,57.0,50.0,77,29.42,9.0,SW,4.6,-,N/A,,Clear,230,2012-10-17 13:53:00
9:53 AM,62.1,51.1,67,29.42,10.0,South,10.4,17.3,N/A,,Clear,190,2012-10-17 14:53:00
10:53 AM,63.0,48.9,60,29.41,10.0,South,12.7,-,N/A,,Clear,180,2012-10-17 15:53:00
11:53 AM,66.0,51.1,59,29.39,10.0,South,13.8,-,N/A,,Clear,180,2012-10-17 16:53:00
12:53 PM,68.0,51.1,55,29.36,10.0,SSE,16.1,-,N/A,,Partly Cloudy,160,2012-10-17 17:53:00
1:53 PM,66.9,51.1,57,29.35,10.0,South,13.8,-,N/A,,Mostly Cloudy,170,2012-10-17 18:53:00
2:53 PM,68.0,52.0,56,29.35,10.0,SSW,8.1,-,N/A,,Scattered Clouds,210,2012-10-17 19:53:00
3:53 PM,66.0,53.1,63,29.34,10.0,South,11.5,-,N/A,,Overcast,170,2012-10-17 20:53:00
4:53 PM,64.0,52.0,65,29.34,10.0,SSW,9.2,-,N/A,,Scattered Clouds,200,2012-10-17 21:53:00
5:53 PM,61.0,52.0,72,29.34,10.0,SSE,10.4,-,N/A,,Mostly Cloudy,150,2012-10-17 22:53:00
6:53 PM,57.9,54.0,87,29.34,9.0,South,4.6,-,0.00,Rain,Light Rain,170,2012-10-17 23:53:00
7:53 PM,57.0,54.0,89,29.33,3.0,SSE,5.8,-,0.04,Rain,Light Rain,160,2012-10-18 00:53:00
8:04 PM,57.2,55.4,94,29.32,5.0,SE,5.8,-,0.00,Rain,Light Rain,140,2012-10-18 01:04:00
8:53 PM,57.0,55.0,93,29.31,4.0,SE,4.6,-,0.00,Rain,Light Rain,130,2012-10-18 01:53:00
9:29 PM,55.4,53.6,94,29.29,2.0,SE,6.9,-,0.04,Rain,Light Rain,130,2012-10-18 02:29:00
9:43 PM,55.4,55.4,100,29.29,2.0,SE,9.2,-,0.05,Rain,Light Rain,140,2012-10-18 02:43:00
9:53 PM,55.9,54.0,93,29.28,2.5,SSE,9.2,-,0.05,Rain,Light Rain,150,2012-10-18 02:53:00
10:00 PM,55.4,53.6,94,29.28,2.5,SSE,8.1,-,N/A,,Overcast,150,2012-10-18 03:00:00
10:22 PM,55.4,53.6,94,29.27,2.5,SE,6.9,-,0.01,Rain,Light Rain,140,2012-10-18 03:22:00
10:34 PM,55.4,55.4,100,29.27,1.2,SE,6.9,-,0.04,Rain,Heavy Rain,130,2012-10-18 03:34:00
10:53 PM,55.9,55.0,97,29.26,2.0,SE,9.2,-,0.13,Rain,Rain,140,2012-10-18 03:53:00
11:12 PM,57.2,55.4,94,29.25,3.0,SSE,16.1,-,0.08,Rain,Rain,150,2012-10-18 04:12:00
11:19 PM,57.2,55.4,94,29.25,4.0,SSE,15.0,21.9,0.10,Rain,Rain,150,2012-10-18 04:19:00
11:36 PM,57.2,55.4,94,29.24,4.0,SE,13.8,-,0.16,Rain,Heavy Rain,140,2012-10-18 04:36:00
11:48 PM,57.2,53.6,88,29.23,4.0,SE,18.4,25.3,0.23,Rain,Heavy Rain,140,2012-10-18 04:48:00
11:53 PM,57.0,54.0,89,29.22,4.0,SE,13.8,25.3,0.25,Rain,Rain,140,2012-10-18 04:53:00